User: anonymous   Login
Location: Waning Moon II Observatory
(30.3730°N, 89.7620°W)
Time: 09:43:13
(UTC-05:00)
Language:

Meteor 1-21 - Orbit

View from above orbital plane
View from above orbital plane
View from above satellite
View from above satellite

Ground track
Ground track

The orbit data is extracted from the following two-line orbital elements,

1  7714U 75023A   17268.92024940 +.00000105 +00000-0 +54429-4 0  9994
2  7714 081.2089 093.5793 0033376 336.7691 023.1968 14.07972583499111
Epoch (UTC): 25 September 2017 22:05:09
Eccentricity: 0.0033376
inclination: 81.2089°
perigee height: 842 km
apogee height: 890 km
right ascension of ascending node: 93.5793°
argument of perigee: 336.7691°
revolutions per day: 14.07972583
mean anomaly at epoch: 23.1968°
orbit number at epoch: 49911

The dashed part of the orbit path shows where the satellite is in the earth's shadow,  

DLR